WetterOnline ( https://www.wetteronline.de )

Wetter aktuell Paderborn

Aktuelles Wetter: Bad Lippspringe (158m)

6-stündlich | Neueste Meldungen
Ortszeit Temperatur Wetter
Fr, 09.12. 19:00 0.4° C bedeckt
Fr, 09.12. 13:00 0.8° C bedeckt
Fr, 09.12. 7:00 -0.3° C Nebel
Fr, 09.12. 1:00 0.1° C leichter Schneefall
Do, 08.12. 19:00 1.5° C bedeckt
Do, 08.12. 13:00 2.2° C Sprühregen
Do, 08.12. 7:00 2.7° C leichter Regen
Do, 08.12. 1:00 2.8° C bedeckt
Ortszeit Temperatur Wetter
Fr, 09.12. 20:00 -0.3° C bewölkt
Fr, 09.12. 19:40 -0.1° C bewölkt
Fr, 09.12. 19:30 0.2° C bedeckt
Fr, 09.12. 19:20 0.2° C bedeckt
Fr, 09.12. 19:10 0.2° C bedeckt
Fr, 09.12. 19:00 0.4° C bedeckt
Fr, 09.12. 18:50 0.4° C Dunst
Fr, 09.12. 18:30 0.5° C bedeckt
Fr, 09.12. 18:00 0.5° C bedeckt
Fr, 09.12. 17:30 0.6° C bedeckt
Fr, 09.12. 17:00 0.8° C bedeckt
Ortszeit Relative Feuchte Sichtweite
Fr, 09.12. 19:00 92% 7 km
Fr, 09.12. 13:00 84% 20 km
Fr, 09.12. 7:00 96% 9 km
Fr, 09.12. 1:00 99% 2.1 km
Do, 08.12. 19:00 96% 7 km
Do, 08.12. 13:00 96% 11 km
Do, 08.12. 7:00 93% 8 km
Do, 08.12. 1:00 92% 8 km
Ortszeit Relative Feuchte Sichtweite
Fr, 09.12. 20:00 95% 7 km
Fr, 09.12. 19:40 95% -
Fr, 09.12. 19:30 92% 14 km
Fr, 09.12. 19:20 92% -
Fr, 09.12. 19:10 92% -
Fr, 09.12. 19:00 92% 7 km
Fr, 09.12. 18:50 92% -
Fr, 09.12. 18:30 86% 30 km
Fr, 09.12. 18:00 89% 20 km
Fr, 09.12. 17:30 90% 17 km
Fr, 09.12. 17:00 84% 27 km
Ortszeit Niederschlagsmenge Niederschlagsart
Fr, 09.12. 19:00 0.0 l/m2 in 12 Std. -
Fr, 09.12. 13:00 0.0 l/m2 in 6 Std. -
Fr, 09.12. 7:00 3 l/m2 in 12 Std. Schnee, Sprühregen
Fr, 09.12. 1:00 3 l/m2 in 6 Std. Schnee, Regen
Do, 08.12. 19:00 5 l/m2 in 12 Std. Regen
Do, 08.12. 13:00 5 l/m2 in 6 Std. Regen
Do, 08.12. 7:00 0.6 l/m2 in 12 Std. Regen
Do, 08.12. 1:00 0.1 l/m2 in 6 Std. Regen
Ortszeit Niederschlagsmenge Niederschlagsart
Fr, 09.12. 20:00 0.0 l/m2 in 1 Std. -
Fr, 09.12. 19:40 keine Meldung -
Fr, 09.12. 19:30 0.0 l/m2 in 1 Std. -
Fr, 09.12. 19:20 keine Meldung -
Fr, 09.12. 19:10 keine Meldung -
Fr, 09.12. 19:00 0.0 l/m2 in 1 Std. -
Fr, 09.12. 18:50 keine Meldung -
Fr, 09.12. 18:30 0.0 l/m2 in 1 Std. -
Fr, 09.12. 18:00 0.0 l/m2 in 1 Std. -
Fr, 09.12. 17:30 0.0 l/m2 in 1 Std. -
Fr, 09.12. 17:00 0.0 l/m2 in 1 Std. -
Ortszeit Stärke Spitze Richtung
km/h Bft. km/h Grad Sektor
Fr, 09.12. 19:00 2 1 11 40° NO
Fr, 09.12. 13:00 4 1 11 80° O
Fr, 09.12. 7:00 7 2 11 140° SO
Fr, 09.12. 1:00 6 1 11 290° W
Do, 08.12. 19:00 4 1 22 210° SW
Do, 08.12. 13:00 13 3 28 280° W
Do, 08.12. 7:00 15 3 28 250° W
Do, 08.12. 1:00 13 3 24 260° W
Ortszeit Stärke Spitze Richtung
km/h Bft. km/h Grad Sektor
Fr, 09.12. 20:00 2 1 6 120° SO
Fr, 09.12. 19:40 4 1 - 140° SO
Fr, 09.12. 19:30 4 1 4 150° SO
Fr, 09.12. 19:20 4 1 - 150° SO
Fr, 09.12. 19:10 4 1 - 190° S
Fr, 09.12. 19:00 2 1 9 40° NO
Fr, 09.12. 18:50 2 1 - 40° NO
Fr, 09.12. 18:30 0 0 11 - -
Fr, 09.12. 18:00 4 1 11 140° SO
Fr, 09.12. 17:30 7 2 11 140° SO
Fr, 09.12. 17:00 6 1 7 170° S
Ortszeit Untergrenze Bedeckung Gattung
total tief tief mittel hoch
Fr, 09.12. 19:00 630 m 8/8 8/8 - - -
Fr, 09.12. 13:00 330 m 8/8 8/8 - - -
Fr, 09.12. 7:00 240 m 6/8 6/8 - - -
Fr, 09.12. 1:00 <30 m 8/8 0/8 - - -
Do, 08.12. 19:00 210 m 8/8 8/8 - - -
Do, 08.12. 13:00 150 m 7/8 7/8 - - -
Do, 08.12. 7:00 270 m 7/8 7/8 - - -
Do, 08.12. 1:00 240 m 8/8 8/8 - - -
Ortszeit Bedeckungsgrad in Achtel und Wolkenuntergrenze
Fr, 09.12. 20:00 7(690m)
Fr, 09.12. 19:40 7
Fr, 09.12. 19:30 8(690m)
Fr, 09.12. 19:20 8(690m)
Fr, 09.12. 19:10 8
Fr, 09.12. 19:00 8(630m)
Fr, 09.12. 18:50 8(630m)
Fr, 09.12. 18:30 8(570m)
Fr, 09.12. 18:00 8(540m)
Fr, 09.12. 17:30 8(510m)
Fr, 09.12. 17:00 8(510m)
Ortszeit Luftdruck NN (hPa) Tendenz (hPa in 3 Std.)
Fr, 09.12. 19:00 1007 + 0,6
Fr, 09.12. 13:00 1007 - 0,4
Fr, 09.12. 7:00 1007 - 0,7
Fr, 09.12. 1:00 1008 0,0
Do, 08.12. 19:00 1008 + 0,5
Do, 08.12. 13:00 1007 - 0,3
Do, 08.12. 7:00 1008 - 1,6
Do, 08.12. 1:00 1010 - 1,3
Ortszeit Luftdruck NN (hPa) Tendenz (hPa in 3 Std.)
Fr, 09.12. 20:00 1008 + 0,7
Fr, 09.12. 19:40 1007 keine Meldung
Fr, 09.12. 19:30 1007 + 0,5
Fr, 09.12. 19:20 1007 keine Meldung
Fr, 09.12. 19:10 1007 keine Meldung
Fr, 09.12. 19:00 1007 + 0,6
Fr, 09.12. 18:50 1007 keine Meldung
Fr, 09.12. 18:30 1007 + 0,6
Fr, 09.12. 18:00 1007 + 0,4
Fr, 09.12. 17:30 1007 + 0,2
Fr, 09.12. 17:00 1007 + 0,1
Ortszeit Schneehöhe (cm)
Fr, 09.12. 19:00 0
Fr, 09.12. 13:00 0
Fr, 09.12. 7:00 0
Fr, 09.12. 1:00 -
Do, 08.12. 19:00 0
Do, 08.12. 13:00 0
Do, 08.12. 7:00 0
Do, 08.12. 1:00 0
Ortszeit Schneehöhe (cm)
Fr, 09.12. 20:00 0
Fr, 09.12. 19:40 0
Fr, 09.12. 19:30 0
Fr, 09.12. 19:20 0
Fr, 09.12. 19:10 0
Fr, 09.12. 19:00 0
Fr, 09.12. 18:50 0
Fr, 09.12. 18:30 0
Fr, 09.12. 18:00 0
Fr, 09.12. 17:30 0
Fr, 09.12. 17:00 0
Link zu dieser Seite / Seite empfehlen

Das Wetter in ...